Погода в Хоуме

США     29°35′53″N   90°42′58″W
темп.,
°C
ветер,
м/с
пор.,
м/с
влажн.,
%
обл.,
%
осадки,
мм/ч
давл.,
гПа
погр.,
м
31 июля, сб
сб3101:00+26зюз2287100 0.3 101719
04:00+25сз1291100 1.3 101619
07:00+25сз2291100 1.9 101752
10:00+30сз227261 0.0 1018489
13:00+33ссз1157100 1.2 10171439
16:00+30з2272100 2.8 1016384
19:00+27ююз248599 3.6 1016143
22:00+26зюз238313 0.0 101640
1 августа, вс
вс101:00+25юз23895 0.0 101552
04:00+25зюз249021 0.3 101571
07:00+25зсз239059 0.8 101759
10:00+29зсз237594 0.3 1018534
13:00+34сз2255100 0.3 10171618
16:00+30зсз237498 5.4 1016261
19:00+29зюз367922 8.3 1015166
22:00+25зюз35915 1.9 101689
2 августа, пн
пн201:00+25зюз359238 2.7 1016103
04:00+25зюз249257 2.1 101580
07:00+25з269387 6.4 1016142
10:00+27сз3588100 5.0 1016307
13:00+30з3573100 5.6 1016917
16:00+31зюз4465100 0.4 10141108
19:00+27зюз2685100 1.6 1013155
22:00+25юз3691100 2.2 1014126
3 августа, вт
вт301:00+24зюз2694100 5.0 1013125
04:00+24зсз239571 4.8 101359
07:00+24сз119597 11.8 101335
10:00+25зюз3894100 6.8 1014252
13:00+25юз598899 10.8 1014472
16:00+28зюз5675100 0.8 1012907
19:00+26зюз358898 2.8 1012208
22:00+24зсз2292100 0.8 101325
4 августа, ср
ср401:00+24ссв24935 0.8 101272
04:00+22с369576 0.0 1012133
07:00+21с36935 0.0 1014147
10:00+27с457717 0.0 1015558
13:00+30ссз44585 0.0 10141472
16:00+31ссз33475 0.0 10131971
19:00+27сз376739 0.0 1013182
22:00+23ссз38724 0.0 1014131